Regional Weather Roundup
Issued by NWS

Home | Current Version | Previous Version | Text Only | Print | Product List | Glossary Off
Versions: 1 2 3 4 5 6 7 8 9 10 11 12 13 14 15 16 17 18 19 20 21 22 23 24 25 26 27 28 29 30 31 32 33 34 35 36 37 38 39 40 41 42 43 44 45 46 47 48 49 50

000
ASUS43 KIND 271059
RWRIN

WEATHER ROUNDUP FOR INDIANA
NATIONAL WEATHER SERVICE INDIANAPOLIS IN
700 AM EDT MON APR 27 2015

NOTE: "FAIR" INDICATES FEW OR NO CLOUDS BELOW 12,000 FEET WITH NO
SIGNIFICANT WEATHER AND/OR OBSTRUCTIONS TO VISIBILITY.

* - STATION DOES NOT REPORT WEATHER SUCH AS PRECIPITATION OR FOG.

+ - STATION NOT QUALITY CONTROLLED BY THE NATIONAL WEATHER SERVICE.
    USE DATA WITH CAUTION...ESPECIALLY DEWPOINT AND RELATIVE
    HUMIDITY OBSERVATIONS.

INZ001>003-010>013-019-020-271200-
NORTHWEST INDIANA

CITY           SKY/WX    TMP DP  RH WIND       PRES   REMARKS
GARY /AIRPORT/ CLEAR     43  30  61 N15G26    30.03S
KNOX *+        CLEAR     34  28  80 N8        29.98F WCI  27

$$

LMZ046-743>745-271200-
SOUTHERN LAKE MICHIGAN

STATION/POSITION TIME  TEMP    WIND        PRES    WAVE
                       AIR SEA DIR/SP/G            HT
                 (UTC) (F)     (DEG/KT/KT) (MB)    (FT)
BURNS HARBOR     1000   42      20/ 22/ 25 1016.3F
MICHIGAN CITY    1000   41     350/ 20/ 23   N/A
5NW MICH CITY    1000   40 45   20/ 17/ 21   N/A     4

$$

INZ004-005-014>016-021>024-271200-
NORTH CENTRAL INDIANA

CITY           SKY/WX    TMP DP  RH WIND       PRES   REMARKS
ELKHART        FAIR      39  28  65 N5        29.99
GOSHEN         CLEAR     37  31  78 N8        29.97S
SOUTH BEND     CLEAR     37  32  82 N10       29.99F
WARSAW +       CLEAR     36  32  87 N7        29.97S

$$

INZ006>009-017-018-025>027-271200-
NORTHEAST INDIANA

CITY           SKY/WX    TMP DP  RH WIND       PRES   REMARKS
ANGOLA *+      MOCLDY    37  32  81 N5        29.96R
FORT WAYNE     PTCLDY    36  31  82 NW6       29.96R

$$

INZ028-029-035-036-043>045-051>053-271200-
WEST CENTRAL INDIANA

CITY           SKY/WX    TMP DP  RH WIND       PRES   REMARKS
GREENCASTLE +  CLEAR     36  28  75 NW5       30.01R
LAFAYETTE      CLEAR     33  32  96 W3        30.02R
TERRE HAUTE    CLEAR     38  31  76 N8        30.02R

$$

INZ030>032-037>040-046>048-054>057-064-065-271200-
CENTRAL INDIANA

CITY           SKY/WX    TMP DP  RH WIND       PRES   REMARKS
COLUMBUS       PTCLDY    36  30  80 NW6       29.97
FRANKFORT +    FAIR      35  33  91 W7        30.00R WCI  29
GREENWOOD *+   CLEAR     37  28  70 NW7       29.98R
INDIANAPOLIS   CLEAR     35  29  78 NW7       29.97R WCI  29
-EAGLE CREEK   CLEAR     37  31  78 NW8       29.98R
KOKOMO *+      CLEAR     37  30  75 N10       29.96R
MT COMFORT *+  CLEAR     34  25  69 W5        29.98R WCI  30
SHELBYVILLE    CLEAR     38  30  73 NW8       29.97R

$$

INZ033-034-041-042-049-050-058-059-271200-
EAST CENTRAL INDIANA

CITY           SKY/WX    TMP DP  RH WIND       PRES   REMARKS
MUNCIE         CLEAR     36  30  79 NW5       29.94R

$$

INZ060-061-067>069-081>083-085>088-271200-
SOUTHWEST INDIANA

CITY           SKY/WX    TMP DP  RH WIND       PRES   REMARKS
EVANSVILLE     CLEAR     43  32  65 N6        30.01R
HUNTINGBURG *+ CLEAR     39  30  70 NW7       30.00R

$$

INZ062-063-066-070>080-084-089>092-271200-
SOUTH CENTRAL AND SOUTHEAST INDIANA

CITY           SKY/WX    TMP DP  RH WIND       PRES   REMARKS
BLOOMINGTON    CLEAR     38  29  70 NW5       29.99R
MADISON *+     CLEAR     37  34  87 CALM      29.97R
SEYMOUR +      CLEAR     37  30  75 CALM      29.98R

$$



USA.gov is the U.S. government's official web portal to all federal, state and local government web resources and services.